Theta_e
305 305 305 306 306 305 306 306 306 305 304 307 306 305 303 302 301 299 299 298 297 296 295 294 293 292 291 290 289 289 289 289 288 289 289 290 291 296 298 299 300 298 301 303
306 304 304 304 303 305 305 304 304 304 305 306 304 303 302 301 300 299 298 297 296 295 294 293 292 291 290 290 290 289 288 288 288 289 288 289 290 292 297 300 299 300 300 298
305 304 304 304 303 304 304 305 306 306 305 304 303 302 301 300 299 298 297 296 295 294 293 292 291 291 290 290 290 289 288 287 287 288 288 288 289 289 291 292 296 301 301 295
306 306 305 305 306 306 306 306 305 304 304 303 302 301 301 300 299 297 296 295 294 293 292 292 291 290 289 290 289 289 287 287 287 287 287 288 288 289 289 290 291 292 292 292
306 306 305 306 306 305 304 304 305 305 303 302 302 301 301 300 298 296 295 294 293 292 291 291 291 290 289 289 289 288 286 286 287 287 287 287 287 288 288 289 289 289 290 290
307 306 306 308 305 304 304 303 304 303 302 301 301 302 302 298 296 294 294 293 292 291 290 290 290 289 288 288 288 286 286 286 286 286 286 286 286 287 287 287 287 287 288 289
307 307 307 306 304 303 304 306 303 302 301 301 300 299 298 297 294 294 294 292 291 290 290 289 289 288 288 287 286 285 285 285 284 285 285 285 285 285 285 285 286 286 286 286
306 306 307 305 304 304 305 302 301 300 299 299 298 298 297 295 294 294 293 292 290 289 288 288 288 287 286 286 285 284 284 283 284 284 284 284 284 284 284 284 284 284 284 285
308 307 305 304 306 304 303 302 300 299 298 298 298 297 295 294 293 292 291 290 289 288 287 287 286 286 285 284 284 283 283 283 284 284 283 284 284 284 284 284 283 282 282 283
306 306 305 304 303 302 301 300 299 298 298 297 296 294 293 292 291 290 289 287 286 286 285 285 284 284 284 283 282 282 282 282 283 283 283 283 283 283 283 283 282 282 282 281
304 304 304 304 302 301 299 298 298 297 296 294 293 292 291 290 289 287 286 285 284 283 283 283 282 282 282 281 281 281 280 281 282 282 282 282 282 282 283 283 282 281 281 280
305 305 303 303 301 299 298 297 297 296 295 293 291 290 289 288 287 285 283 282 282 281 280 281 280 280 280 280 280 280 280 281 282 281 281 282 282 282 282 282 282 281 281 280
303 303 303 302 300 299 298 297 295 293 291 290 289 287 287 286 284 282 281 281 280 280 279 279 278 278 279 279 279 279 280 281 281 281 281 282 281 281 281 281 281 281 280 279
302 301 301 300 299 298 297 294 291 290 289 288 287 285 284 284 282 281 281 280 279 279 278 279 278 278 278 279 279 279 280 281 281 281 281 281 281 281 280 280 280 280 279 279
300 300 300 298 296 295 293 292 291 290 288 287 285 283 282 282 281 281 280 279 279 278 278 278 278 278 278 279 279 279 280 280 280 280 281 280 280 280 280 279 279 279 279 278
299 298 297 296 295 293 291 290 290 288 286 285 283 282 281 280 280 280 279 279 278 278 279 278 277 277 278 278 278 278 279 280 279 280 280 280 280 280 279 279 279 278 278 277
298 297 296 294 292 291 290 288 287 286 284 283 282 281 280 280 279 279 278 278 278 278 278 277 277 277 277 277 277 277 279 279 279 279 280 279 279 279 279 279 278 278 278 277
297 296 295 293 291 289 287 286 285 284 283 282 281 280 280 279 278 278 278 278 278 278 277 276 276 276 276 277 276 277 278 278 278 278 279 278 279 279 279 278 278 278 277 276
292 291 291 290 288 288 286 285 284 283 281 281 280 279 279 278 278 277 278 278 278 277 276 276 276 276 275 276 276 277 277 277 277 277 278 278 278 278 278 278 277 277 276 276
290 288 287 286 286 286 285 284 282 282 280 280 279 279 278 278 277 277 277 278 277 276 275 275 275 275 274 275 275 276 276 276 276 276 277 277 277 277 277 277 277 276 276 275
288 286 286 286 285 284 283 282 281 281 280 279 279 278 278 278 278 277 278 277 276 275 275 275 274 274 274 274 275 275 275 275 275 275 275 275 276 276 276 276 276 276 275 274
287 287 286 284 284 283 282 281 280 280 279 279 278 278 277 278 278 278 277 276 275 274 274 275 274 274 274 274 274 274 274 274 273 274 274 274 274 274 274 274 275 274 274 274
287 286 284 283 283 282 281 280 279 279 279 278 277 277 277 277 277 277 276 275 274 274 274 274 273 274 273 273 273 273 273 273 272 273 273 273 273 273 273 273 273 273 273 273
286 284 283 282 281 281 281 279 279 278 278 278 277 276 276 276 276 276 275 274 274 273 273 273 273 272 273 273 272 272 272 272 272 272 272 272 272 272 272 271 271 271 271 272
284 283 283 281 281 280 280 279 279 279 279 279 278 277 276 275 275 275 275 274 274 273 273 273 272 272 272 272 272 272 271 271 271 271 271 271 271 270 270 270 270 270 270 271
282 282 282 282 283 282 281 280 281 280 279 279 278 277 276 275 275 274 274 274 273 273 273 272 272 271 271 271 271 271 271 271 270 270 270 270 270 270 269 269 269 269 269 270
283 282 281 281 281 280 280 280 280 280 278 278 277 277 276 275 275 274 274 274 273 273 273 272 272 271 271 271 271 270 270 270 269 269 269 269 269 269 269 269 269 269 269 269
Wind_Speed
14 14 7 9 12 14 17 15 12 13 15 9 9 7 10 17 18 19 19 20 20 21 22 23 24 26 27 33 31 31 32 34 29 26 29 29 27 19 15 14 16 14 10 8
10 12 11 13 13 12 14 15 17 17 10 7 10 12 14 14 13 15 17 18 19 20 21 22 24 25 27 30 29 32 28 32 33 28 29 26 27 23 18 13 15 18 16 9
7 14 13 14 13 14 16 14 2 8 9 11 9 10 10 9 10 14 16 17 19 19 20 23 24 25 27 27 28 28 31 29 30 34 29 27 26 23 22 17 11 9 13 16
6 2 12 9 1 10 5 2 4 9 7 5 8 10 5 3 10 14 15 17 17 19 20 21 22 24 26 24 26 28 30 30 29 31 28 28 29 24 22 17 16 15 14 14
4 8 7 6 5 2 2 7 6 5 2 4 9 11 2 4 10 12 14 16 16 17 19 19 21 22 24 25 24 29 33 32 30 29 28 25 24 23 23 22 17 13 13 12
6 9 7 8 8 6 7 5 6 4 1 5 8 7 4 9 11 13 13 15 17 18 18 18 19 22 23 24 25 31 32 30 28 27 26 26 25 22 22 20 17 17 17 15
7 5 1 9 10 4 3 1 5 2 2 3 4 6 13 12 13 12 14 16 16 17 17 18 19 20 21 22 25 29 28 28 27 26 26 25 25 23 24 22 21 20 20 18
6 4 9 14 9 3 7 5 3 1 1 2 6 9 10 12 13 14 15 16 16 17 18 17 18 20 20 20 23 26 26 27 26 26 26 26 27 25 27 27 26 24 23 21
1 1 5 11 11 9 4 8 5 3 3 5 8 8 9 11 13 14 15 15 16 17 17 17 18 19 20 22 24 26 27 25 23 26 25 25 25 23 23 25 26 26 27 28
2 6 9 7 7 6 5 6 5 2 2 4 6 8 9 11 13 13 14 15 16 16 16 17 19 19 19 21 24 24 26 25 24 26 25 25 24 23 23 25 28 27 27 30
2 4 7 5 7 7 6 5 3 2 1 3 5 7 9 11 12 12 13 14 15 15 16 17 19 19 19 21 23 25 26 25 25 25 24 24 23 22 21 20 23 25 26 29
2 9 7 6 12 8 8 5 3 1 2 3 5 7 9 10 10 13 13 14 15 17 18 18 19 18 19 22 22 24 25 23 24 25 22 22 25 25 21 20 20 19 21 23
3 8 7 10 10 8 8 7 4 2 2 2 4 7 8 9 13 15 14 17 20 20 18 21 19 20 20 23 23 24 21 21 21 24 21 21 23 22 25 22 19 18 19 22
12 11 10 10 10 8 8 5 5 4 4 4 5 6 8 8 13 15 18 19 18 17 19 20 21 22 23 22 23 25 20 20 22 22 21 22 22 21 21 23 24 24 22 23
10 4 7 11 10 7 6 5 3 2 3 3 5 7 9 12 14 15 19 19 17 15 17 21 23 24 22 22 25 25 21 22 24 23 21 21 22 21 21 21 21 23 24 27
9 9 9 9 8 6 5 3 2 2 3 4 4 7 7 7 7 13 16 16 16 18 19 21 23 25 21 23 25 24 20 22 24 21 22 22 22 21 22 22 22 24 25 28
10 8 8 7 7 5 4 4 3 2 2 2 6 9 10 10 8 13 15 14 15 16 15 23 21 22 21 22 25 20 21 22 21 20 21 22 21 21 21 22 21 22 23 24
7 8 6 8 8 7 5 3 2 1 3 6 8 9 11 12 14 15 15 14 13 16 20 18 22 21 20 20 23 18 20 20 19 19 19 20 19 18 19 20 19 20 22 23
11 11 12 11 9 7 5 3 3 5 6 6 7 9 10 12 14 15 12 17 12 19 24 19 21 21 21 18 17 18 19 19 18 17 17 17 17 17 17 18 19 18 19 20
12 12 11 10 9 6 6 3 3 5 4 5 6 8 10 10 13 13 13 13 18 21 22 16 19 20 18 17 17 18 18 19 17 17 17 16 15 14 15 16 16 17 17 17
12 10 8 5 5 3 1 1 2 3 3 5 5 7 8 10 13 14 11 10 15 21 17 15 20 22 18 16 18 18 18 18 17 16 17 16 15 14 14 13 15 15 15 16
12 8 5 4 2 1 0 1 1 2 4 4 6 8 7 8 9 11 13 13 18 19 15 16 24 21 15 16 17 16 17 19 17 16 16 15 15 14 14 12 14 14 14 15
10 7 6 4 2 1 1 1 2 2 4 5 8 9 7 7 8 8 10 14 16 18 14 19 24 18 15 16 16 16 16 17 17 16 15 16 14 14 13 14 11 13 14 14
9 8 6 4 2 3 3 3 3 6 6 6 11 12 10 8 7 9 11 13 17 17 13 19 22 18 15 15 16 17 15 20 19 15 15 14 15 14 14 14 13 12 14 14
9 8 6 5 5 4 2 3 5 6 9 5 7 10 11 9 9 11 12 13 15 16 14 16 19 20 15 15 15 16 15 17 19 15 15 15 14 15 13 12 13 14 12 12
9 6 5 8 8 4 4 1 2 2 1 1 4 9 8 9 9 11 11 12 14 14 15 15 17 18 17 15 15 16 15 15 16 16 15 14 14 14 14 13 12 12 14 12
10 10 6 5 6 5 6 6 4 2 2 3 2 8 8 9 9 9 10 12 12 14 14 14 16 18 18 15 15 16 15 15 16 14 14 15 14 14 16 14 14 14 12 13
Wind_Direction
272 283 268 278 218 234 231 236 253 273 276 35 27 359 2 352 352 344 339 338 341 341 342 342 343 345 345 341 350 349 346 348 354 357 355 357 357 353 1 356 356 9 35 57
284 263 261 254 258 251 247 255 269 272 291 63 2 353 355 352 345 338 337 340 341 340 341 343 343 345 342 347 348 345 350 348 351 2 1 359 359 356 348 353 339 353 8 1
259 247 243 250 246 254 256 247 323 285 303 357 347 347 353 338 338 338 338 340 339 340 340 340 342 341 343 346 347 347 347 355 357 356 3 357 359 6 9 1 357 324 329 341
260 237 237 245 139 344 224 277 243 262 254 338 316 316 328 349 332 335 336 336 337 337 337 338 339 339 342 348 346 343 345 355 358 351 359 359 357 4 0 6 15 353 346 339
230 238 255 181 196 194 224 257 260 247 317 305 312 315 121 349 336 333 332 332 333 334 335 336 338 339 342 347 344 340 347 352 354 350 353 357 353 0 357 2 356 358 342 0
225 243 266 60 100 109 104 252 178 142 295 306 316 299 94 341 335 335 330 332 333 335 336 337 339 340 344 346 341 342 344 346 346 347 351 351 348 358 358 0 358 359 2 13
234 253 241 150 138 159 210 113 114 60 340 7 309 321 315 328 330 331 331 334 336 338 339 339 340 341 344 343 345 336 339 341 347 351 352 347 354 0 1 356 2 5 4 6
232 258 252 149 135 211 115 123 146 179 282 292 289 299 316 325 329 332 334 336 339 339 339 339 341 342 344 343 336 334 341 345 353 350 350 353 357 0 358 357 359 0 358 357
311 158 110 122 98 99 105 153 146 173 245 278 303 318 326 328 332 334 337 340 339 338 338 340 343 345 344 340 338 339 343 350 354 346 355 356 358 357 356 353 353 356 357 353
187 173 143 123 106 119 125 136 147 175 282 316 324 326 330 332 334 337 339 340 339 342 344 344 344 346 344 336 333 341 345 351 351 350 355 354 357 355 355 352 351 354 352 348
211 228 119 155 155 160 141 132 151 162 352 345 335 333 334 335 338 338 339 342 345 345 344 342 342 343 342 337 344 348 347 351 352 351 350 350 353 353 354 351 346 347 345 344
235 181 158 172 150 165 156 152 177 199 302 327 338 339 339 339 334 326 342 342 343 343 343 344 341 343 344 345 351 350 346 353 349 345 349 353 350 351 355 350 350 349 344 344
112 124 152 142 158 168 159 153 145 116 68 4 352 354 352 344 315 336 338 340 346 345 347 341 346 349 349 350 355 346 350 351 344 342 351 350 347 348 347 351 357 357 349 344
115 118 131 158 150 142 147 145 140 106 69 31 11 7 357 348 333 336 339 339 344 348 342 350 351 347 344 351 349 347 355 349 342 344 350 347 348 350 352 352 354 356 358 350
123 90 166 132 128 132 138 141 132 95 38 20 357 5 1 344 355 331 333 338 349 352 351 350 346 342 349 351 346 348 356 347 344 348 350 347 349 354 355 357 359 358 358 355
134 126 132 136 136 134 134 111 120 71 29 15 357 339 350 340 346 313 333 346 356 359 2 332 342 343 352 353 343 348 355 344 344 348 345 348 350 354 353 358 0 1 3 357
149 159 145 138 135 131 122 101 95 80 48 7 308 334 338 343 340 338 351 3 12 7 337 335 347 350 355 349 339 351 350 340 345 348 343 347 349 353 353 356 358 0 1 358
130 146 158 157 147 142 131 114 98 69 260 313 328 338 345 350 350 351 359 11 2 349 336 352 349 350 344 344 342 355 344 342 346 345 343 345 351 352 352 353 358 358 358 1
127 130 145 144 140 153 130 132 216 286 311 329 341 345 352 349 354 358 8 15 342 338 348 355 344 340 340 345 355 355 343 344 345 345 346 350 351 353 354 355 358 359 359 2
122 122 127 131 136 148 188 236 270 308 329 345 345 346 351 354 359 7 19 8 348 339 342 353 339 332 352 355 6 351 347 347 348 346 346 348 350 354 356 357 358 359 359 3
135 136 147 154 158 189 246 271 283 328 340 339 346 354 9 15 5 0 350 342 335 332 349 349 335 345 2 6 0 348 351 349 351 351 350 350 351 355 357 358 2 358 360 360
171 171 164 162 152 127 67 346 354 342 346 355 358 2 20 14 352 352 348 356 334 334 5 339 338 350 5 8 351 354 355 351 352 355 353 355 356 358 356 360 6 359 0 359
178 181 175 166 155 97 66 34 22 22 10 14 12 3 12 22 355 336 336 325 331 343 3 331 341 355 10 358 352 355 356 351 355 360 357 357 355 357 358 357 356 3 352 354
176 173 173 171 155 96 40 38 42 44 29 29 8 10 18 359 355 317 331 338 337 349 357 332 342 357 5 354 355 354 360 346 354 0 359 359 357 359 2 2 1 359 350 353
171 172 167 151 112 136 195 67 74 39 23 17 350 353 343 338 336 340 340 340 341 341 351 342 344 352 1 356 357 355 1 350 357 4 3 359 1 357 360 1 359 352 349 355
167 163 162 161 162 163 160 164 156 226 232 284 305 314 337 337 339 343 340 342 342 347 347 346 345 352 358 359 355 354 356 354 358 6 4 2 2 359 360 0 2 359 355 2
165 180 200 160 176 173 189 196 170 219 294 257 267 312 330 338 342 337 337 338 349 344 345 347 348 349 353 357 355 353 354 355 354 1 2 4 5 3 5 5 2 0 356 359